Location: Cosy Dell
(34.2789°N, 117.4537°W)
Time: 12:09:59
(UTC+00:00)

NPP - Pass Details

Date: 14 July 2020
Orbit: 826 x 828 km, 98.7° (Epoch: 09 August)

Event Time Altitude Azimuth Distance (km) Brightness Sun altitude
Rises 09:48:49 0° 8° (N) 3,369 7.9 -28.0°
Reaches altitude 10° 09:51:12 10° 5° (N) 2,432 6.9 -27.8°
Enters shadow 09:56:19 61° 296° (WNW) 936 3.8 -27.2°
